This demonstration page uses our WeatherBlox Daily Observations layout. Learn more.

Hourly Observations for October 12, 2017

Temp ( °F °C ) Dew Point ( °F °C ) Humidity (%) Winds ( mph kmh ) Pressure ( in mb ) Visibility ( mi km ) Precip ( " mm )
12:54 am 00:54 Clear 47 8.3 42 5.6 83 83 SSE 8 13 30.09 1019 10 16.0934 0 0
1:54 am 01:54 Clear 46 7.8 42 5.6 86 86 S 9 15 30.07 1018 10 16.0934 0 0
2:54 am 02:54 Clear 48 8.9 44 6.7 86 86 S 9 15 30.06 1018 10 16.0934 0 0
3:54 am 03:54 Clear 47 8.3 44 6.7 90 90 SSE 8 13 30.05 1018 10 16.0934 0 0
4:54 am 04:54 Clear 48 8.9 45 7.2 89 89 SE 7 11 30.05 1018 10 16.0934 0 0
5:54 am 05:54 Clear 49 9.4 46 7.8 90 90 SE 6 9 30.04 1017 10 16.0934 0 0
6:54 am 06:54 Clear 48 8.9 46 7.8 93 93 SSE 9 15 30.04 1017 10 16.0934 0 0
7:54 am 07:54 Sunny 49 9.4 46 7.8 90 90 SSE 10 17 30.04 1017 10 16.0934 0 0
8:54 am 08:54 Sunny 52 11.1 48 8.9 86 86 SSE 12 19 30.05 1018 10 16.0934 0 0
9:54 am 09:54 Sunny 55 12.8 49 9.4 80 80 SSE 17 28 30.01 1016 10 16.0934 0 0
10:54 am 10:54 Sunny 61 16.1 51 10.6 70 70 SSE 17 28 30 1016 10 16.0934 0 0
11:54 am 11:54 Sunny 64 17.8 51 10.6 63 63 SSE 17 28 29.97 1015 10 16.0934 0 0
12:54 pm 12:54 Sunny 68 20 52 11.1 57 57 S 21 33 29.93 1014 10 16.0934 0 0
1:54 pm 13:54 Sunny 70 21.1 53 11.7 55 55 S 15 24 29.91 1013 10 16.0934 0 0
2:54 pm 14:54 Sunny 72 22.2 53 11.7 52 52 S 17 28 29.87 1012 10 16.0934 0 0
3:54 pm 15:54 Mostly Sunny 72 22.2 54 12.2 53 53 SE 14 22 29.87 1012 10 16.0934 0 0
4:54 pm 16:54 Sunny 72 22.2 54 12.2 53 53 SSE 10 17 29.86 1011 10 16.0934 0 0
5:54 pm 17:54 Sunny 70 21.1 54 12.2 57 57 SE 14 22 29.85 1011 10 16.0934 0 0
6:54 pm 18:54 Clear 65 18.3 54 12.2 68 68 SE 9 15 29.88 1012 10 16.0934 0 0
7:54 pm 19:54 Clear 64 17.8 54 12.2 70 70 SE 12 19 29.88 1012 10 16.0934 0 0
8:54 pm 20:54 Clear 63 17.2 54 12.2 73 73 ESE 6 9 29.91 1013 10 16.0934 0 0
9:54 pm 21:54 Clear 61 16.1 53 11.7 75 75 VRB 3 6 29.93 1013 10 16.0934 0 0
10:54 pm 22:54 Clear 56 13.3 52 11.1 87 87 NNE 9 15 29.95 1014 10 16.0934 0 0
11:54 pm 23:54 Cloudy 57 13.9 53 11.7 87 87 NNE 7 11 29.96 1014 10 16.0934 0 0

Powered by AerisWeather